Visalia, CA

11:06 PM PST on January 20, 2017 (GMT -0800)
Visalia

Weather History for KVIS - November, 2013

Change the Weather History Date:

Saturday, November 16, 2013

  Actual Average Record
Temperature  
Mean Temperature 54 °F -  
Max Temperature 66 °F 64 °F 78 °F (1979)
Min Temperature 41 °F 42 °F 29 °F (1958)
Degree Days  
Heating Degree Days 12    
Growing Degree Days 4 (Base 50)    
Moisture  
Dew Point 37 °F    
Average Humidity 58    
Maximum Humidity 76    
Minimum Humidity 37    
Precipitation  
Precipitation 0.00 in - - ()
Sea Level Pressure  
Sea Level Pressure 29.82 in    
Wind  
Wind Speed 4 mph (SE)    
Max Wind Speed 8 mph    
Max Gust Speed -    
Visibility 9 miles    
Events      
Averages and records for this station are not official NWS values.
T = Trace of Precipitation, MM = Missing Value Source: NWS Daily Summary

Daily Weather History Graph

Daily Weather History Graph

Search for Another Location

Airport or City:

Trip Planner

Search our weather history database for the weather conditions in past years. The results will help you decide how hot, cold, wet, or windy it might be!

Date:

Astronomy

Nov. 16, 2013 Rise Set
Actual Time 6:36 AM PST 4:48 PM PST
Civil Twilight 6:08 AM PST 5:15 PM PST
Nautical Twilight 5:37 AM PST 5:47 PM PST
Astronomical Twilight 5:06 AM PST 6:17 PM PST
Moon 4:26 PM PST (11/16) 5:38 AM PST (11/16)
Length of Visible Light 11h 07m
Length of Day
10h 12m
Waxing Gibbous, 99% of the Moon is Illuminated
Nov 16
Waxing Gibbous
Nov 17
Full
Nov 25
Last Quarter
Dec 2
New
Dec 9
First Quarter

Hourly Weather History & Observations

Time (PST) Temp. Windchill Dew Point Humidity Pressure Visibility Wind Dir Wind Speed Gust Speed Precip Events Conditions
12:15 AM 44.6 °F 43.1 °F 35.6 °F 71% 29.77 in 10.0 mi SE 3.5 mph - N/A   Clear
12:35 AM 44.6 °F - 35.6 °F 71% 29.77 in 10.0 mi Calm Calm - N/A   Clear
12:55 AM 44.6 °F - 35.6 °F 71% 29.79 in 10.0 mi Calm Calm - N/A   Clear
1:15 AM 44.6 °F - 35.6 °F 71% 29.78 in 10.0 mi Calm Calm - N/A   Clear
1:35 AM 42.8 °F 40.1 °F 33.8 °F 70% 29.77 in 10.0 mi East 4.6 mph - N/A   Clear
1:55 AM 42.8 °F 41.1 °F 33.8 °F 70% 29.77 in 10.0 mi ESE 3.5 mph - N/A   Clear
2:15 AM 42.8 °F 39.3 °F 33.8 °F 70% 29.77 in 10.0 mi SE 5.8 mph - N/A   Clear
2:35 AM 42.8 °F 40.1 °F 35.6 °F 76% 29.76 in 10.0 mi SSE 4.6 mph - N/A   Clear
2:55 AM 42.8 °F 40.1 °F 33.8 °F 70% 29.77 in 9.0 mi SSE 4.6 mph - N/A   Clear
3:15 AM 42.8 °F 41.1 °F 35.6 °F 76% 29.77 in 8.0 mi SE 3.5 mph - N/A   Clear
3:35 AM 42.8 °F 41.1 °F 35.6 °F 76% 29.77 in 8.0 mi SE 3.5 mph - N/A   Clear
3:55 AM 42.8 °F 41.1 °F 33.8 °F 70% 29.78 in 8.0 mi ESE 3.5 mph - N/A   Clear
4:15 AM 42.8 °F 40.1 °F 35.6 °F 76% 29.78 in 8.0 mi SE 4.6 mph - N/A   Clear
4:35 AM 42.8 °F 39.3 °F 33.8 °F 70% 29.77 in 8.0 mi SE 5.8 mph - N/A   Clear
4:55 AM 42.8 °F 41.1 °F 35.6 °F 76% 29.79 in 8.0 mi ESE 3.5 mph - N/A   Clear
5:15 AM 42.8 °F - 35.6 °F 76% 29.79 in 8.0 mi Calm Calm - N/A   Clear
5:35 AM 42.8 °F - 33.8 °F 70% 29.80 in 8.0 mi Calm Calm - N/A   Clear
5:55 AM 41.0 °F 39.0 °F 32.0 °F 70% 29.80 in 7.0 mi ESE 3.5 mph - N/A   Clear
6:15 AM 41.0 °F 38.0 °F 33.8 °F 76% 29.80 in 6.0 mi SE 4.6 mph - N/A   Clear
6:35 AM 41.0 °F 36.4 °F 33.8 °F 76% 29.80 in 7.0 mi SSE 6.9 mph - N/A   Clear
6:55 AM 41.0 °F 38.0 °F 33.8 °F 76% 29.82 in 5.0 mi SE 4.6 mph - N/A   Clear
7:15 AM 42.8 °F 39.3 °F 33.8 °F 70% 29.82 in 5.0 mi SE 5.8 mph - N/A   Clear
7:35 AM 44.6 °F 41.4 °F 35.6 °F 71% 29.82 in 5.0 mi SE 5.8 mph - N/A   Clear
7:55 AM 44.6 °F 40.7 °F 37.4 °F 76% 29.83 in 7.0 mi SE 6.9 mph - N/A   Clear
8:15 AM 46.4 °F 42.9 °F 37.4 °F 71% 29.83 in 7.0 mi SE 6.9 mph - N/A   Clear
8:35 AM 48.2 °F - 37.4 °F 66% 29.85 in 9.0 mi SSE 6.9 mph - N/A   Clear
8:55 AM 50.0 °F - 37.4 °F 62% 29.85 in 9.0 mi SSE 6.9 mph - N/A   Clear
9:15 AM 51.8 °F - 39.2 °F 62% 29.83 in 8.0 mi SSE 8.1 mph - N/A   Clear
9:35 AM 53.6 °F - 39.2 °F 58% 29.84 in 8.0 mi SSE 6.9 mph - N/A   Clear
9:55 AM 55.4 °F - 39.2 °F 54% 29.85 in 10.0 mi SSE 5.8 mph - N/A   Clear
10:15 AM 57.2 °F - 39.2 °F 51% 29.85 in 10.0 mi ESE 5.8 mph - N/A   Clear
10:35 AM 57.2 °F - 39.2 °F 51% 29.85 in 10.0 mi SE 4.6 mph - N/A   Clear
10:55 AM 59.0 °F - 39.2 °F 48% 29.84 in 10.0 mi SSE 3.5 mph - N/A   Clear
11:15 AM 60.8 °F - 39.2 °F 45% 29.84 in 10.0 mi South 5.8 mph - N/A   Clear
11:35 AM 60.8 °F - 39.2 °F 45% 29.83 in 8.0 mi SSE 4.6 mph - N/A   Clear
11:55 AM 62.6 °F - 39.2 °F 42% 29.82 in 8.0 mi SSW 5.8 mph - N/A   Clear
12:15 PM 62.6 °F - 41.0 °F 45% 29.81 in 10.0 mi SSW 3.5 mph - N/A   Clear
12:35 PM 62.6 °F - 42.8 °F 48% 29.81 in 10.0 mi SSW 4.6 mph - N/A   Clear
12:55 PM 64.4 °F - 42.8 °F 45% 29.80 in 10.0 mi South 4.6 mph - N/A   Clear
1:15 PM 64.4 °F - 41.0 °F 42% 29.80 in 10.0 mi South 3.5 mph - N/A   Clear
1:35 PM 64.4 °F - 42.8 °F 45% 29.80 in 10.0 mi South 4.6 mph - N/A   Clear
1:55 PM 64.4 °F - 41.0 °F 42% 29.79 in 10.0 mi South 4.6 mph - N/A   Clear
2:15 PM 64.4 °F - 41.0 °F 42% 29.78 in 10.0 mi SSW 5.8 mph - N/A   Clear
2:35 PM 66.2 °F - 41.0 °F 40% 29.79 in 10.0 mi SW 4.6 mph - N/A   Clear
2:55 PM 66.2 °F - 41.0 °F 40% 29.79 in 10.0 mi South 5.8 mph - N/A   Clear
3:15 PM 66.2 °F - 39.2 °F 37% 29.79 in 10.0 mi Calm Calm - N/A   Clear
3:35 PM 66.2 °F - 39.2 °F 37% 29.79 in 10.0 mi Calm Calm - N/A   Clear
3:55 PM 66.2 °F - 39.2 °F 37% 29.79 in 10.0 mi Calm Calm - N/A   Clear
4:15 PM 66.2 °F - 39.2 °F 37% 29.79 in 10.0 mi Calm Calm - N/A   Clear
4:35 PM 64.4 °F - 39.2 °F 40% 29.80 in 10.0 mi WNW 3.5 mph - N/A   Clear
4:55 PM 62.6 °F - 37.4 °F 39% 29.80 in 10.0 mi NW 3.5 mph - N/A   Clear
5:15 PM 59.0 °F - 35.6 °F 42% 29.81 in 10.0 mi North 4.6 mph - N/A   Clear
5:35 PM 57.2 °F - 37.4 °F 48% 29.81 in 10.0 mi North 4.6 mph - N/A   Clear
5:55 PM 57.2 °F - 37.4 °F 48% 29.82 in 10.0 mi North 3.5 mph - N/A   Clear
6:15 PM 55.4 °F - 37.4 °F 51% 29.82 in 9.0 mi North 3.5 mph - N/A   Clear
6:35 PM 55.4 °F - 37.4 °F 51% 29.83 in 10.0 mi NNW 4.6 mph - N/A   Clear
6:55 PM 55.4 °F - 37.4 °F 51% 29.84 in 10.0 mi Calm Calm - N/A   Clear
7:15 PM 53.6 °F - 37.4 °F 54% 29.85 in 9.0 mi Calm Calm - N/A   Clear
7:35 PM 51.8 °F - 35.6 °F 54% 29.85 in 10.0 mi Calm Calm - N/A   Clear
7:55 PM 53.6 °F - 37.4 °F 54% 29.86 in 8.0 mi North 3.5 mph - N/A   Clear
8:15 PM 51.8 °F - 37.4 °F 58% 29.87 in 10.0 mi North 4.6 mph - N/A   Clear
8:35 PM 51.8 °F - 37.4 °F 58% 29.88 in 9.0 mi North 6.9 mph - N/A   Clear
8:55 PM 55.4 °F - 39.2 °F 54% 29.88 in 10.0 mi North 6.9 mph - N/A   Clear
9:15 PM 53.6 °F - 37.4 °F 54% 29.89 in 10.0 mi North 6.9 mph - N/A   Clear
9:35 PM 53.6 °F - 37.4 °F 54% 29.89 in 10.0 mi North 4.6 mph - N/A   Clear
9:55 PM 51.8 °F - 37.4 °F 58% 29.89 in 10.0 mi North 4.6 mph - N/A   Clear
10:15 PM 51.8 °F - 35.6 °F 54% 29.89 in 10.0 mi NNW 6.9 mph - N/A   Clear
10:35 PM 51.8 °F - 35.6 °F 54% 29.89 in 10.0 mi NNW 5.8 mph - N/A   Clear
10:55 PM 48.2 °F - 33.8 °F 58% 29.90 in 10.0 mi NW 6.9 mph - N/A   Clear
11:15 PM 48.2 °F - 35.6 °F 62% 29.90 in 10.0 mi NW 6.9 mph - N/A   Clear
11:35 PM 48.2 °F - 35.6 °F 62% 29.91 in 10.0 mi NW 5.8 mph - N/A   Clear
11:55 PM 48.2 °F - 35.6 °F 62% 29.91 in 10.0 mi NNW 5.8 mph - N/A   Clear